QPF
0.01 0.01 0.01 0.01 0.01 0.02 0.02 0.02 0.03 0.04 0.04 0.06 0.08 0.10 0.09 0.08 0.06 0.06 0.04 0.04 0.04 0.05 0.04 0.05 0.06 0.07 0.08 0.08 0.08 0.08 0.08 0.07 0.06 0.04 0.03 0.03 0.03 0.02 0.02 0.02 0.02 0.02 0.02
0.01 0.01 0.01 0.01 0.01 0.02 0.02 0.01 0.02 0.01 0.02 0.02 0.04 0.06 0.09 0.10 0.10 0.09 0.06 0.05 0.04 0.04 0.03 0.02 0.03 0.03 0.05 0.06 0.08 0.10 0.10 0.11 0.10 0.07 0.06 0.05 0.04 0.04 0.03 0.02 0.01 0.01 0.02
0.01 0.01 0.01 0.01 0.01 0.01 0.01 0.01 0.02 0.01 0.01 0.02 0.04 0.07 0.08 0.10 0.12 0.13 0.11 0.08 0.06 0.04 0.03 0.03 0.03 0.03 0.04 0.03 0.03 0.05 0.07 0.08 0.09 0.08 0.07 0.08 0.07 0.06 0.04 0.03 0.02 0.03 0.02
0.02 0.01 0.01 0.01 0.01 0.01 0.01 0.01 0.01 0.01 0.01 0.02 0.03 0.05 0.07 0.08 0.08 0.09 0.11 0.13 0.10 0.07 0.05 0.04 0.03 0.02 0.02 0.02 0.03 0.03 0.03 0.05 0.06 0.06 0.06 0.07 0.06 0.04 0.04 0.03 0.03 0.04 0.04
0.02 0.01 0.01 0.01 0.01 0.01 0.02 0.02 0.02 0.02 0.01 0.02 0.02 0.04 0.04 0.04 0.05 0.05 0.06 0.08 0.10 0.10 0.09 0.07 0.05 0.04 0.03 0.02 0.02 0.03 0.04 0.05 0.06 0.06 0.06 0.06 0.05 0.03 0.03 0.03 0.02 0.03 0.04
0.02 0.02 0.03 0.03 0.03 0.03 0.03 0.03 0.03 0.03 0.02 0.02 0.02 0.03 0.05 0.03 0.03 0.03 0.03 0.04 0.05 0.07 0.08 0.07 0.05 0.04 0.04 0.03 0.02 0.02 0.03 0.04 0.04 0.04 0.04 0.04 0.04 0.03 0.03 0.03 0.04 0.04 0.05
0.02 0.03 0.03 0.04 0.05 0.06 0.05 0.04 0.03 0.04 0.02 0.01 0.01 0.02 0.02 0.03 0.02 0.03 0.04 0.04 0.05 0.04 0.04 0.04 0.03 0.02 0.02 0.02 0.02 0.01 0.01 0.01 0.02 0.03 0.03 0.03 0.02 0.02 0.03 0.03 0.04 0.04 0.04
0.02 0.02 0.02 0.03 0.06 0.08 0.06 0.05 0.04 0.03 0.03 0.01 0.01 0.01 0.02 0.01 0.01 0.01 0.02 0.03 0.04 0.04 0.03 0.02 0.02 0.02 0.01 0.01 0.02 0.01 0.01 0.01 0.01 0.01 0.02 0.02 0.02 0.02 0.02 0.02 0.03 0.03 0.03
0.01 0.01 0.02 0.02 0.03 0.04 0.04 0.04 0.04 0.03 0.03 0.03 0.01 0.02 0.02 0.02 0.01 0.01 0.01 0.01 0.03 0.03 0.02 0.02 0.02 0.02 0.02 0.02 0.01 0.01 0.01 0.01 0.01 0.01 0.01 0.02 0.01 0.02 0.02 0.02 0.02 0.02 0.02
0.01 0.01 0.01 0.02 0.02 0.02 0.02 0.03 0.04 0.04 0.04 0.04 0.02 0.01 0.01 0.02 0.01 0.01 0.01 0.01 0.01 0.03 0.03 0.03 0.03 0.03 0.04 0.04 0.03 0.02 0.02 0.02 0.02 0.02 0.03 0.03 0.02 0.02 0.01 0.02 0.02 0.02 0.02
0.01 0.01 0.01 0.02 0.03 0.03 0.03 0.02 0.03 0.04 0.05 0.05 0.04 0.03 0.02 0.02 0.01 0.00 0.00 0.01 0.01 0.01 0.03 0.03 0.02 0.02 0.02 0.02 0.02 0.02 0.02 0.02 0.02 0.03 0.04 0.04 0.04 0.03 0.02 0.02 0.02 0.02 0.03
0.01 0.01 0.01 0.01 0.02 0.03 0.04 0.03 0.03 0.03 0.04 0.05 0.05 0.04 0.04 0.03 0.02 0.01 0.01 0.01 0.02 0.01 0.01 0.03 0.02 0.01 0.02 0.01 0.01 0.01 0.01 0.01 0.02 0.03 0.03 0.03 0.03 0.02 0.02 0.02 0.03 0.03 0.03
0.01 0.02 0.02 0.02 0.03 0.03 0.04 0.05 0.04 0.04 0.05 0.05 0.04 0.04 0.03 0.03 0.03 0.02 0.02 0.02 0.02 0.02 0.01 0.02 0.04 0.02 0.02 0.02 0.02 0.02 0.02 0.02 0.03 0.03 0.02 0.02 0.02 0.02 0.03 0.03 0.03 0.04 0.04
0.02 0.03 0.04 0.04 0.04 0.05 0.05 0.06 0.06 0.05 0.05 0.06 0.06 0.05 0.04 0.04 0.04 0.04 0.03 0.02 0.03 0.02 0.02 0.02 0.03 0.04 0.03 0.03 0.03 0.03 0.03 0.03 0.03 0.03 0.02 0.02 0.02 0.02 0.03 0.03 0.03 0.03 0.03
0.03 0.04 0.05 0.06 0.07 0.08 0.08 0.09 0.11 0.12 0.11 0.08 0.07 0.05 0.05 0.05 0.05 0.05 0.04 0.03 0.04 0.03 0.02 0.02 0.03 0.05 0.04 0.03 0.03 0.03 0.03 0.03 0.03 0.02 0.02 0.01 0.01 0.02 0.02 0.03 0.03 0.03 0.03
0.02 0.03 0.04 0.05 0.08 0.09 0.10 0.11 0.11 0.13 0.15 0.14 0.13 0.13 0.10 0.08 0.05 0.04 0.04 0.04 0.03 0.04 0.03 0.02 0.02 0.03 0.04 0.04 0.04 0.04 0.04 0.03 0.03 0.02 0.02 0.01 0.02 0.02 0.03 0.04 0.04 0.04 0.04
0.03 0.03 0.03 0.04 0.05 0.05 0.06 0.08 0.10 0.10 0.10 0.10 0.09 0.09 0.09 0.09 0.07 0.05 0.04 0.05 0.04 0.04 0.03 0.03 0.02 0.02 0.03 0.04 0.04 0.04 0.04 0.04 0.04 0.03 0.03 0.02 0.02 0.02 0.03 0.03 0.04 0.04 0.04
0.04 0.04 0.02 0.02 0.02 0.03 0.04 0.05 0.06 0.06 0.06 0.06 0.05 0.05 0.05 0.05 0.05 0.04 0.03 0.04 0.04 0.04 0.03 0.02 0.02 0.02 0.02 0.02 0.03 0.03 0.04 0.03 0.02 0.02 0.02 0.02 0.02 0.02 0.02 0.03 0.03 0.03 0.04
0.06 0.05 0.03 0.02 0.01 0.02 0.03 0.05 0.05 0.06 0.05 0.06 0.04 0.04 0.04 0.04 0.04 0.03 0.02 0.02 0.01 0.02 0.02 0.02 0.02 0.02 0.02 0.02 0.02 0.02 0.02 0.02 0.02 0.02 0.01 0.01 0.02 0.02 0.03 0.03 0.04 0.04 0.04
0.05 0.05 0.03 0.02 0.02 0.02 0.03 0.05 0.05 0.06 0.05 0.05 0.05 0.03 0.03 0.03 0.03 0.03 0.02 0.01 0.01 0.01 0.02 0.02 0.02 0.02 0.02 0.02 0.02 0.01 0.01 0.02 0.03 0.03 0.03 0.02 0.03 0.03 0.03 0.03 0.05 0.05 0.05
0.04 0.04 0.03 0.03 0.02 0.02 0.02 0.03 0.05 0.05 0.05 0.05 0.05 0.04 0.04 0.04 0.04 0.03 0.03 0.03 0.02 0.02 0.02 0.02 0.02 0.02 0.02 0.02 0.02 0.01 0.01 0.02 0.02 0.03 0.04 0.04 0.04 0.05 0.05 0.04 0.05 0.06 0.05
0.04 0.04 0.04 0.03 0.02 0.02 0.02 0.02 0.02 0.03 0.03 0.03 0.03 0.03 0.04 0.03 0.03 0.02 0.03 0.03 0.02 0.02 0.02 0.02 0.03 0.03 0.04 0.03 0.02 0.02 0.02 0.02 0.02 0.02 0.02 0.03 0.04 0.05 0.06 0.06 0.06 0.06 0.06
0.04 0.04 0.04 0.04 0.03 0.03 0.02 0.02 0.02 0.02 0.03 0.03 0.03 0.03 0.03 0.03 0.03 0.03 0.03 0.04 0.04 0.04 0.03 0.03 0.03 0.03 0.04 0.04 0.04 0.03 0.03 0.03 0.03 0.03 0.03 0.03 0.03 0.05 0.07 0.07 0.08 0.07 0.06
0.05 0.05 0.05 0.04 0.03 0.03 0.03 0.02 0.02 0.02 0.02 0.02 0.02 0.03 0.03 0.03 0.03 0.03 0.03 0.04 0.04 0.04 0.04 0.04 0.04 0.04 0.04 0.05 0.05 0.04 0.03 0.03 0.03 0.03 0.04 0.03 0.03 0.05 0.06 0.07 0.08 0.08 0.08
0.04 0.05 0.05 0.03 0.03 0.03 0.02 0.02 0.02 0.03 0.02 0.02 0.02 0.02 0.03 0.05 0.05 0.03 0.03 0.03 0.03 0.03 0.04 0.04 0.04 0.04 0.04 0.04 0.04 0.04 0.04 0.04 0.03 0.03 0.04 0.04 0.05 0.06 0.07 0.07 0.08 0.08 0.08
0.05 0.07 0.06 0.04 0.04 0.03 0.03 0.02 0.02 0.02 0.02 0.02 0.02 0.03 0.05 0.05 0.05 0.04 0.02 0.02 0.02 0.02 0.02 0.03 0.02 0.03 0.03 0.04 0.04 0.04 0.04 0.04 0.04 0.04 0.04 0.04 0.05 0.06 0.07 0.08 0.09 0.09 0.09
MSLP
1009.58 1010.38 1011.10 1011.72 1012.24 1012.69 1013.10 1013.50 1013.92 1014.38 1014.88 1015.41 1015.94 1016.43 1016.86 1017.20 1017.44 1017.57 1017.61 1017.58 1017.50 1017.40 1017.31 1017.22 1017.14 1017.06 1016.96 1016.81 1016.60 1016.32 1015.97 1015.54 1015.06 1014.54 1014.02 1013.53 1013.09 1012.72 1012.45 1012.27 1012.19 1012.20 1012.29
1008.65 1009.48 1010.25 1010.94 1011.55 1012.09 1012.58 1013.06 1013.55 1014.06 1014.59 1015.14 1015.69 1016.20 1016.64 1017.01 1017.27 1017.44 1017.52 1017.54 1017.50 1017.45 1017.38 1017.32 1017.26 1017.19 1017.10 1016.96 1016.76 1016.49 1016.15 1015.74 1015.27 1014.76 1014.24 1013.73 1013.26 1012.85 1012.52 1012.28 1012.12 1012.05 1012.06
1007.76 1008.60 1009.41 1010.16 1010.86 1011.50 1012.09 1012.66 1013.22 1013.79 1014.37 1014.94 1015.50 1016.02 1016.48 1016.87 1017.16 1017.37 1017.50 1017.56 1017.58 1017.57 1017.54 1017.50 1017.45 1017.39 1017.29 1017.16 1016.96 1016.70 1016.37 1015.98 1015.52 1015.03 1014.52 1014.01 1013.52 1013.07 1012.68 1012.36 1012.12 1011.95 1011.87
1006.95 1007.77 1008.60 1009.41 1010.18 1010.92 1011.61 1012.28 1012.92 1013.56 1014.18 1014.79 1015.37 1015.91 1016.40 1016.81 1017.14 1017.39 1017.57 1017.69 1017.75 1017.78 1017.78 1017.76 1017.72 1017.65 1017.55 1017.41 1017.21 1016.95 1016.63 1016.25 1015.82 1015.35 1014.85 1014.35 1013.85 1013.38 1012.94 1012.55 1012.23 1011.97 1011.78
1006.23 1007.01 1007.84 1008.68 1009.52 1010.33 1011.12 1011.88 1012.62 1013.32 1014.01 1014.66 1015.28 1015.85 1016.36 1016.81 1017.19 1017.49 1017.73 1017.90 1018.01 1018.08 1018.11 1018.11 1018.07 1017.99 1017.87 1017.71 1017.49 1017.23 1016.91 1016.54 1016.14 1015.69 1015.22 1014.74 1014.25 1013.77 1013.30 1012.86 1012.46 1012.11 1011.82
1005.61 1006.33 1007.14 1007.99 1008.86 1009.74 1010.60 1011.45 1012.26 1013.04 1013.79 1014.50 1015.17 1015.78 1016.34 1016.84 1017.27 1017.63 1017.93 1018.16 1018.33 1018.45 1018.51 1018.52 1018.48 1018.39 1018.25 1018.06 1017.82 1017.54 1017.22 1016.87 1016.48 1016.06 1015.63 1015.17 1014.70 1014.22 1013.75 1013.27 1012.82 1012.39 1012.00
1005.07 1005.73 1006.49 1007.32 1008.21 1009.13 1010.05 1010.96 1011.85 1012.70 1013.51 1014.27 1014.99 1015.66 1016.28 1016.83 1017.33 1017.76 1018.13 1018.43 1018.67 1018.83 1018.93 1018.96 1018.93 1018.83 1018.67 1018.45 1018.20 1017.90 1017.57 1017.22 1016.85 1016.46 1016.05 1015.62 1015.18 1014.72 1014.24 1013.75 1013.26 1012.77 1012.30
1004.62 1005.20 1005.91 1006.72 1007.61 1008.54 1009.50 1010.45 1011.39 1012.29 1013.15 1013.97 1014.75 1015.47 1016.14 1016.77 1017.33 1017.84 1018.29 1018.67 1018.97 1019.19 1019.34 1019.40 1019.38 1019.28 1019.11 1018.88 1018.60 1018.29 1017.95 1017.59 1017.23 1016.86 1016.47 1016.08 1015.66 1015.22 1014.76 1014.27 1013.75 1013.23 1012.70
1004.24 1004.77 1005.44 1006.23 1007.10 1008.04 1009.00 1009.98 1010.94 1011.88 1012.78 1013.64 1014.46 1015.23 1015.96 1016.64 1017.28 1017.86 1018.38 1018.83 1019.20 1019.48 1019.68 1019.78 1019.79 1019.71 1019.54 1019.31 1019.03 1018.70 1018.35 1018.00 1017.63 1017.26 1016.89 1016.51 1016.12 1015.70 1015.25 1014.76 1014.24 1013.69 1013.12
1003.96 1004.47 1005.12 1005.88 1006.75 1007.68 1008.64 1009.62 1010.60 1011.55 1012.48 1013.36 1014.21 1015.02 1015.79 1016.51 1017.20 1017.83 1018.41 1018.92 1019.35 1019.70 1019.95 1020.10 1020.14 1020.09 1019.95 1019.73 1019.45 1019.12 1018.77 1018.41 1018.04 1017.67 1017.30 1016.93 1016.54 1016.13 1015.68 1015.20 1014.69 1014.13 1013.54
1003.78 1004.30 1004.95 1005.73 1006.59 1007.51 1008.48 1009.46 1010.43 1011.39 1012.32 1013.22 1014.08 1014.91 1015.70 1016.45 1017.16 1017.82 1018.43 1018.98 1019.45 1019.84 1020.13 1020.32 1020.41 1020.39 1020.29 1020.10 1019.84 1019.53 1019.19 1018.82 1018.45 1018.08 1017.70 1017.31 1016.92 1016.51 1016.07 1015.59 1015.08 1014.53 1013.93
1003.69 1004.26 1004.95 1005.75 1006.62 1007.56 1008.52 1009.50 1010.48 1011.44 1012.37 1013.27 1014.14 1014.97 1015.76 1016.51 1017.22 1017.88 1018.49 1019.04 1019.52 1019.91 1020.23 1020.45 1020.57 1020.60 1020.53 1020.38 1020.17 1019.89 1019.57 1019.22 1018.85 1018.47 1018.08 1017.68 1017.28 1016.86 1016.41 1015.94 1015.43 1014.88 1014.29
1003.65 1004.30 1005.06 1005.90 1006.80 1007.76 1008.74 1009.73 1010.71 1011.68 1012.62 1013.53 1014.40 1015.23 1016.01 1016.74 1017.42 1018.05 1018.62 1019.13 1019.57 1019.95 1020.26 1020.48 1020.63 1020.69 1020.67 1020.57 1020.40 1020.17 1019.89 1019.57 1019.22 1018.85 1018.46 1018.05 1017.63 1017.20 1016.75 1016.27 1015.77 1015.23 1014.66
1003.60 1004.35 1005.18 1006.07 1007.02 1008.01 1009.02 1010.03 1011.04 1012.04 1013.01 1013.94 1014.82 1015.65 1016.42 1017.12 1017.75 1018.32 1018.82 1019.26 1019.64 1019.96 1020.22 1020.43 1020.57 1020.66 1020.68 1020.64 1020.54 1020.37 1020.15 1019.87 1019.56 1019.21 1018.83 1018.43 1018.01 1017.57 1017.12 1016.64 1016.14 1015.61 1015.06
1003.46 1004.30 1005.20 1006.16 1007.15 1008.18 1009.23 1010.28 1011.34 1012.38 1013.40 1014.38 1015.29 1016.14 1016.90 1017.57 1018.16 1018.65 1019.07 1019.41 1019.70 1019.93 1020.13 1020.30 1020.43 1020.52 1020.58 1020.60 1020.56 1020.47 1020.33 1020.12 1019.87 1019.56 1019.22 1018.83 1018.43 1018.00 1017.55 1017.07 1016.58 1016.06 1015.52
1003.15 1004.07 1005.04 1006.04 1007.08 1008.15 1009.24 1010.35 1011.46 1012.57 1013.66 1014.70 1015.67 1016.55 1017.32 1017.98 1018.53 1018.96 1019.29 1019.53 1019.72 1019.86 1019.98 1020.09 1020.20 1020.31 1020.40 1020.47 1020.51 1020.51 1020.45 1020.33 1020.15 1019.91 1019.61 1019.27 1018.89 1018.48 1018.04 1017.58 1017.10 1016.59 1016.06
1002.65 1003.63 1004.64 1005.68 1006.75 1007.85 1008.98 1010.14 1011.32 1012.50 1013.67 1014.79 1015.83 1016.77 1017.58 1018.24 1018.76 1019.14 1019.41 1019.57 1019.67 1019.73 1019.79 1019.85 1019.94 1020.05 1020.18 1020.31 1020.43 1020.52 1020.55 1020.52 1020.43 1020.26 1020.02 1019.73 1019.39 1019.00 1018.58 1018.14 1017.67 1017.18 1016.66
1001.98 1003.00 1004.04 1005.09 1006.18 1007.29 1008.45 1009.65 1010.89 1012.14 1013.39 1014.59 1015.71 1016.71 1017.57 1018.26 1018.78 1019.15 1019.37 1019.48 1019.53 1019.54 1019.55 1019.60 1019.68 1019.82 1019.99 1020.18 1020.38 1020.55 1020.67 1020.73 1020.72 1020.62 1020.45 1020.20 1019.90 1019.54 1019.15 1018.72 1018.27 1017.78 1017.26
1001.22 1002.27 1003.32 1004.38 1005.46 1006.58 1007.75 1008.97 1010.25 1011.55 1012.85 1014.12 1015.31 1016.37 1017.28 1018.01 1018.56 1018.93 1019.16 1019.26 1019.30 1019.30 1019.32 1019.37 1019.49 1019.66 1019.89 1020.15 1020.42 1020.67 1020.87 1021.00 1021.05 1021.01 1020.88 1020.67 1020.39 1020.06 1019.68 1019.27 1018.83 1018.35 1017.84
1000.46 1001.54 1002.60 1003.66 1004.73 1005.84 1007.00 1008.22 1009.50 1010.82 1012.16 1013.46 1014.69 1015.80 1016.75 1017.53 1018.12 1018.53 1018.79 1018.93 1019.01 1019.05 1019.12 1019.23 1019.40 1019.64 1019.93 1020.27 1020.60 1020.91 1021.16 1021.34 1021.43 1021.41 1021.30 1021.11 1020.84 1020.52 1020.15 1019.75 1019.31 1018.84 1018.33
999.81 1000.92 1002.00 1003.06 1004.12 1005.21 1006.34 1007.54 1008.80 1010.10 1011.42 1012.72 1013.96 1015.09 1016.07 1016.89 1017.52 1018.00 1018.33 1018.55 1018.70 1018.84 1018.99 1019.20 1019.46 1019.79 1020.16 1020.56 1020.95 1021.30 1021.58 1021.77 1021.86 1021.84 1021.72 1021.51 1021.23 1020.90 1020.52 1020.12 1019.68 1019.22 1018.73
999.33 1000.48 1001.59 1002.66 1003.71 1004.77 1005.87 1007.02 1008.23 1009.49 1010.76 1012.03 1013.24 1014.36 1015.35 1016.19 1016.88 1017.42 1017.84 1018.16 1018.44 1018.70 1018.98 1019.30 1019.68 1020.11 1020.56 1021.02 1021.46 1021.83 1022.11 1022.29 1022.35 1022.29 1022.12 1021.87 1021.55 1021.19 1020.79 1020.38 1019.94 1019.49 1019.02
999.03 1000.24 1001.37 1002.46 1003.50 1004.55 1005.61 1006.70 1007.85 1009.03 1010.24 1011.44 1012.60 1013.69 1014.67 1015.53 1016.27 1016.88 1017.40 1017.85 1018.26 1018.66 1019.09 1019.55 1020.05 1020.58 1021.11 1021.63 1022.08 1022.45 1022.71 1022.85 1022.85 1022.73 1022.50 1022.18 1021.80 1021.39 1020.96 1020.53 1020.10 1019.67 1019.22
998.88 1000.13 1001.29 1002.39 1003.43 1004.46 1005.48 1006.53 1007.61 1008.72 1009.85 1010.98 1012.09 1013.13 1014.10 1014.98 1015.76 1016.45 1017.07 1017.64 1018.18 1018.74 1019.31 1019.90 1020.52 1021.14 1021.74 1022.29 1022.76 1023.11 1023.33 1023.40 1023.33 1023.13 1022.82 1022.43 1021.99 1021.53 1021.06 1020.61 1020.18 1019.76 1019.35
998.82 1000.07 1001.24 1002.35 1003.39 1004.40 1005.39 1006.40 1007.43 1008.48 1009.55 1010.62 1011.68 1012.69 1013.65 1014.55 1015.37 1016.14 1016.85 1017.54 1018.22 1018.90 1019.60 1020.31 1021.03 1021.73 1022.38 1022.95 1023.41 1023.73 1023.90 1023.91 1023.76 1023.48 1023.09 1022.63 1022.13 1021.61 1021.11 1020.64 1020.21 1019.81 1019.43
998.79 1000.01 1001.16 1002.25 1003.27 1004.26 1005.24 1006.22 1007.22 1008.23 1009.27 1010.31 1011.34 1012.34 1013.31 1014.24 1015.11 1015.95 1016.76 1017.55 1018.34 1019.13 1019.93 1020.73 1021.51 1022.26 1022.94 1023.51 1023.95 1024.24 1024.36 1024.31 1024.10 1023.76 1023.30 1022.78 1022.22 1021.67 1021.14 1020.65 1020.21 1019.82 1019.47
Thickness
5723 5721 5719 5717 5715 5713 5711 5710 5708 5707 5705 5704 5703 5702 5700 5699 5698 5696 5695 5694 5692 5691 5690 5689 5687 5686 5686 5686 5685 5684 5682 5681 5678 5682 5684 5684 5681 5680 5681 5680 5680 5680 5680
5717 5715 5713 5712 5710 5707 5706 5704 5703 5701 5701 5700 5699 5697 5696 5695 5694 5692 5691 5690 5688 5686 5685 5684 5683 5682 5680 5680 5679 5678 5677 5675 5673 5672 5674 5675 5675 5674 5674 5673 5675 5676 5676
5711 5709 5707 5706 5704 5702 5701 5699 5698 5696 5695 5695 5694 5693 5692 5691 5689 5688 5687 5685 5683 5682 5680 5679 5678 5676 5674 5674 5673 5672 5672 5672 5669 5668 5668 5669 5669 5668 5667 5668 5669 5668 5669
5704 5702 5701 5700 5698 5696 5695 5693 5692 5691 5689 5688 5688 5687 5687 5686 5685 5683 5681 5679 5678 5677 5676 5674 5673 5671 5669 5668 5668 5666 5665 5664 5663 5662 5662 5662 5662 5662 5660 5661 5662 5663 5662
5696 5695 5695 5694 5692 5691 5689 5687 5686 5685 5685 5683 5682 5681 5681 5680 5679 5676 5675 5674 5672 5671 5669 5669 5667 5665 5662 5661 5662 5661 5659 5658 5658 5657 5656 5656 5656 5654 5654 5655 5655 5656 5657
5689 5689 5688 5687 5686 5685 5684 5682 5680 5679 5679 5678 5677 5676 5676 5675 5670 5667 5666 5667 5666 5665 5663 5662 5661 5659 5656 5653 5652 5650 5649 5650 5651 5650 5651 5649 5648 5648 5647 5647 5647 5648 5648
5682 5682 5682 5681 5680 5679 5678 5677 5675 5674 5673 5672 5672 5671 5670 5668 5663 5660 5658 5660 5660 5658 5657 5655 5656 5655 5651 5650 5647 5644 5643 5642 5641 5642 5643 5642 5642 5642 5640 5640 5639 5639 5639
5676 5676 5676 5675 5673 5673 5672 5671 5670 5668 5667 5666 5666 5665 5664 5662 5656 5653 5651 5653 5654 5652 5651 5650 5649 5648 5646 5643 5643 5642 5640 5639 5638 5637 5636 5635 5635 5633 5631 5631 5631 5630 5631
5669 5669 5669 5669 5668 5667 5666 5665 5664 5662 5661 5660 5660 5659 5657 5655 5650 5647 5644 5648 5648 5647 5646 5645 5643 5642 5636 5634 5635 5636 5635 5634 5632 5630 5628 5627 5625 5623 5621 5622 5623 5623 5625
5661 5662 5662 5662 5661 5661 5660 5659 5658 5656 5655 5654 5653 5653 5651 5650 5644 5641 5638 5644 5642 5641 5640 5639 5634 5633 5629 5626 5629 5629 5628 5628 5628 5627 5623 5621 5620 5618 5615 5614 5616 5615 5617
5654 5654 5654 5654 5654 5655 5654 5653 5651 5650 5649 5648 5647 5646 5645 5643 5639 5635 5632 5636 5637 5636 5636 5635 5632 5625 5622 5619 5620 5622 5622 5620 5622 5622 5621 5619 5617 5615 5613 5611 5610 5609 5609
5646 5645 5646 5646 5647 5649 5647 5646 5645 5643 5642 5641 5640 5639 5640 5638 5635 5630 5626 5626 5627 5629 5629 5629 5626 5619 5615 5613 5614 5615 5612 5611 5615 5617 5616 5615 5613 5611 5609 5607 5605 5603 5603
5638 5638 5639 5639 5640 5640 5640 5640 5639 5637 5637 5637 5636 5635 5635 5634 5630 5625 5621 5619 5619 5621 5623 5619 5616 5612 5610 5610 5609 5607 5606 5608 5610 5611 5610 5610 5608 5606 5604 5601 5599 5598 5597
5631 5631 5632 5633 5633 5632 5632 5633 5633 5633 5632 5631 5630 5630 5629 5627 5626 5623 5619 5615 5612 5613 5614 5612 5608 5607 5606 5606 5606 5605 5605 5606 5605 5604 5604 5604 5602 5600 5597 5596 5594 5592 5592
5624 5625 5626 5627 5626 5625 5625 5624 5625 5625 5623 5622 5624 5624 5622 5620 5618 5613 5612 5612 5610 5609 5605 5606 5608 5608 5607 5607 5606 5606 5604 5602 5599 5598 5597 5596 5594 5593 5592 5590 5588 5587 5586
5618 5619 5620 5621 5620 5620 5620 5618 5614 5615 5613 5610 5610 5611 5613 5609 5606 5604 5602 5600 5599 5596 5597 5603 5604 5604 5604 5603 5602 5601 5599 5597 5595 5593 5591 5589 5587 5586 5584 5583 5581 5580 5580
5613 5613 5614 5615 5615 5614 5615 5614 5611 5607 5604 5602 5601 5601 5599 5597 5596 5595 5594 5592 5591 5589 5593 5598 5598 5598 5597 5597 5596 5594 5593 5592 5589 5586 5584 5582 5581 5580 5578 5577 5576 5575 5575
5609 5607 5607 5608 5609 5609 5609 5608 5607 5605 5603 5601 5596 5593 5591 5588 5588 5587 5586 5585 5590 5589 5593 5593 5592 5592 5591 5589 5588 5587 5586 5584 5582 5580 5578 5577 5576 5574 5573 5572 5571 5570 5569
5603 5603 5602 5602 5603 5603 5603 5602 5601 5600 5598 5596 5594 5589 5584 5583 5581 5581 5580 5586 5588 5587 5587 5586 5586 5586 5585 5583 5582 5580 5578 5576 5574 5573 5572 5570 5570 5568 5567 5567 5567 5564 5562
5596 5593 5593 5595 5597 5597 5597 5596 5594 5593 5591 5590 5589 5588 5583 5582 5583 5580 5579 5581 5582 5581 5580 5579 5579 5578 5577 5576 5574 5573 5571 5569 5567 5566 5565 5564 5563 5563 5562 5561 5560 5559 5559
5590 5588 5585 5588 5590 5590 5589 5588 5587 5586 5585 5584 5583 5581 5574 5578 5579 5577 5575 5575 5574 5573 5572 5571 5571 5570 5569 5568 5567 5565 5563 5561 5559 5558 5557 5556 5555 5555 5555 5555 5555 5554 5554
5583 5583 5582 5582 5581 5580 5580 5580 5579 5579 5578 5577 5577 5575 5568 5572 5573 5572 5570 5568 5567 5566 5565 5563 5562 5562 5561 5560 5557 5555 5553 5552 5550 5549 5549 5548 5548 5547 5548 5548 5548 5548 5547
5575 5575 5575 5574 5574 5570 5571 5572 5571 5572 5571 5571 5570 5568 5566 5566 5565 5564 5563 5561 5560 5558 5557 5555 5553 5553 5552 5549 5548 5546 5545 5543 5541 5540 5539 5540 5540 5540 5540 5540 5539 5540 5541
5568 5568 5568 5567 5566 5565 5564 5564 5564 5564 5564 5563 5561 5560 5559 5557 5557 5556 5555 5553 5552 5550 5549 5547 5546 5544 5542 5541 5539 5538 5535 5533 5531 5531 5529 5530 5531 5531 5531 5531 5531 5532 5532
5563 5562 5561 5560 5560 5558 5557 5557 5557 5557 5556 5555 5553 5552 5551 5549 5548 5547 5546 5544 5543 5542 5540 5538 5537 5536 5534 5532 5530 5527 5523 5521 5520 5519 5520 5521 5522 5522 5522 5523 5523 5524 5524
5556 5555 5554 5553 5552 5551 5549 5549 5549 5548 5547 5546 5545 5544 5543 5542 5541 5539 5537 5535 5534 5533 5531 5530 5528 5527 5524 5522 5520 5516 5513 5512 5510 5509 5510 5513 5514 5514 5514 5514 5514 5515 5515